Pipestone, MN

4:37 AM CST on February 23, 2017 (GMT -0600)
Pipestone Municipal

Weather History for KPQN - September, 2012

Change the Weather History Date:

Sunday, September 23, 2012

  Actual Average Record
Temperature  
Mean Temperature 43 °F -  
Max Temperature 60 °F 66 °F 87 °F (2007)
Min Temperature 26 °F 44 °F 26 °F (2012)
Degree Days  
Heating Degree Days 22    
Moisture  
Dew Point 24 °F    
Average Humidity 48    
Maximum Humidity 86    
Minimum Humidity 20    
Precipitation  
Precipitation 0.00 in - - ()
Sea Level Pressure  
Sea Level Pressure 30.27 in    
Wind  
Wind Speed 1 mph (SSE)    
Max Wind Speed 6 mph    
Max Gust Speed -    
Visibility 10 miles    
Events      
Averages and records for this station are not official NWS values.
T = Trace of Precipitation, MM = Missing Value Source: NWS Daily Summary

Daily Weather History Graph

Daily Weather History Graph

Search for Another Location

Airport or City:

Trip Planner

Search our weather history database for the weather conditions in past years. The results will help you decide how hot, cold, wet, or windy it might be!

Date:

Astronomy

Sep. 23, 2012 Rise Set
Actual Time 7:14 AM CDT 7:19 PM CDT
Civil Twilight 6:45 AM CDT 7:48 PM CDT
Nautical Twilight 6:11 AM CDT 8:22 PM CDT
Astronomical Twilight 5:37 AM CDT 8:56 PM CDT
Moon 3:32 PM CDT 12:15 AM CDT
Length of Visible Light 13h 03m
Length of Day
12h 05m
First Quarter, 60% of the Moon is Illuminated
Sep 23
First Quarter
Sep 29
Full
Oct 8
Last Quarter
Oct 15
New
Oct 21
First Quarter

Hourly Weather History & Observations

Time (CDT) Temp. Windchill Dew Point Humidity Pressure Visibility Wind Dir Wind Speed Gust Speed Precip Events Conditions
12:13 AM 39.2 °F - 26.6 °F 61% 30.29 in 10.0 mi Calm Calm - N/A   Clear
12:33 AM 37.4 °F - 26.6 °F 65% 30.29 in 10.0 mi Calm Calm - N/A   Clear
12:53 AM 37.4 °F - 26.6 °F 65% 30.29 in 10.0 mi Calm Calm - N/A   Clear
1:13 AM 37.4 °F - 26.6 °F 65% 30.29 in 10.0 mi Calm Calm - N/A   Clear
1:33 AM 35.6 °F - 26.6 °F 70% 30.29 in 10.0 mi Calm Calm - N/A   Clear
1:53 AM 35.6 °F - 26.6 °F 70% 30.30 in 10.0 mi Calm Calm - N/A   Clear
2:13 AM 35.6 °F 32.8 °F 26.6 °F 70% 30.30 in 10.0 mi NE 3.5 mph - N/A   Clear
2:33 AM 35.6 °F 32.8 °F 26.6 °F 70% 30.29 in 10.0 mi NE 3.5 mph - N/A   Clear
2:53 AM 35.6 °F 32.8 °F 26.6 °F 70% 30.30 in 10.0 mi NE 3.5 mph - N/A   Clear
3:13 AM 35.6 °F - 26.6 °F 70% 30.30 in 10.0 mi Calm Calm - N/A   Clear
3:33 AM 32.0 °F - 26.6 °F 80% 30.30 in 10.0 mi Calm Calm - N/A   Clear
3:53 AM 35.6 °F - 26.6 °F 70% 30.30 in 10.0 mi Calm Calm - N/A   Clear
4:13 AM 35.6 °F - 26.6 °F 70% 30.30 in 10.0 mi Calm Calm - N/A   Clear
4:33 AM 32.0 °F - 26.6 °F 80% 30.30 in 10.0 mi Calm Calm - N/A   Clear
4:53 AM 32.0 °F - 26.6 °F 80% 30.30 in 10.0 mi Calm Calm - N/A   Clear
5:13 AM 33.8 °F - 26.6 °F 75% 30.30 in 10.0 mi Calm Calm - N/A   Clear
5:33 AM 33.8 °F - 26.6 °F 75% 30.30 in 10.0 mi Calm Calm - N/A   Clear
5:53 AM 30.2 °F - 26.6 °F 86% 30.30 in 10.0 mi Calm Calm - N/A   Clear
6:14 AM 26.6 °F - 23.0 °F 86% 30.31 in 10.0 mi Calm Calm - N/A   Clear
6:33 AM 26.6 °F - 23.0 °F 86% 30.32 in 10.0 mi Calm Calm - N/A   Clear
6:53 AM 26.6 °F - 23.0 °F 86% 30.32 in 10.0 mi Calm Calm - N/A   Clear
7:13 AM 28.4 °F - 24.8 °F 86% 30.31 in 10.0 mi Calm Calm - N/A   Clear
7:33 AM 28.4 °F - 24.8 °F 86% 30.32 in 10.0 mi Calm Calm - N/A   Clear
7:53 AM 30.2 °F - 26.6 °F 86% 30.32 in 10.0 mi Calm Calm - N/A   Clear
8:13 AM 32.0 °F - 26.6 °F 80% 30.32 in 10.0 mi Calm Calm - N/A   Clear
8:34 AM 35.6 °F - 28.4 °F 75% 30.32 in 10.0 mi Calm Calm - N/A   Clear
8:53 AM 37.4 °F - 32.0 °F 81% 30.33 in 10.0 mi Calm Calm - N/A   Clear
9:13 AM 41.0 °F - 32.0 °F 70% 30.33 in 10.0 mi Calm Calm - N/A   Clear
9:33 AM 44.6 °F - 30.2 °F 57% 30.33 in 10.0 mi Calm Calm - N/A   Clear
9:54 AM 46.4 °F - 30.2 °F 53% 30.34 in 10.0 mi Calm Calm - N/A   Clear
10:13 AM 48.2 °F - 28.4 °F 46% 30.34 in 10.0 mi SW 3.5 mph - N/A   Clear
10:33 AM 50.0 °F - 26.6 °F 40% 30.34 in 10.0 mi Calm Calm - N/A   Clear
10:53 AM 51.8 °F - 26.6 °F 38% 30.34 in 10.0 mi Calm Calm - N/A   Clear
11:33 AM 53.6 °F - 26.6 °F 35% 30.34 in 10.0 mi Calm Calm - N/A   Clear
11:53 AM 53.6 °F - 24.8 °F 33% 30.34 in 10.0 mi Calm Calm - N/A   Clear
12:13 PM 53.6 °F - 24.8 °F 33% 30.33 in 10.0 mi WSW 3.5 mph - N/A   Clear
12:53 PM 55.4 °F - 21.2 °F 26% 30.32 in 10.0 mi WNW 5.8 mph - N/A   Clear
1:13 PM 55.4 °F - 21.2 °F 26% 30.31 in 10.0 mi Calm Calm - N/A   Clear
1:33 PM 55.4 °F - 21.2 °F 26% 30.30 in 10.0 mi Calm Calm - N/A   Clear
1:53 PM 57.2 °F - 21.2 °F 25% 30.28 in 10.0 mi Calm Calm - N/A   Clear
2:13 PM 57.2 °F - 23.0 °F 27% 30.28 in 10.0 mi WNW 4.6 mph - N/A   Clear
2:33 PM 57.2 °F - 21.2 °F 25% 30.27 in 10.0 mi Calm Calm - N/A   Clear
2:54 PM 60.8 °F - 23.0 °F 23% 30.26 in 10.0 mi WSW 5.8 mph - N/A   Clear
3:13 PM 59.0 °F - 21.2 °F 23% 30.25 in 10.0 mi WNW 4.6 mph - N/A   Clear
3:34 PM 60.8 °F - 21.2 °F 22% 30.24 in 10.0 mi West 3.5 mph - N/A   Clear
3:53 PM 60.8 °F - 21.2 °F 22% 30.24 in 10.0 mi Calm Calm - N/A   Clear
4:13 PM 60.8 °F - 21.2 °F 22% 30.23 in 10.0 mi Calm Calm - N/A   Clear
4:33 PM 60.8 °F - 19.4 °F 20% 30.22 in 10.0 mi Calm Calm - N/A   Clear
4:53 PM 60.8 °F - 19.4 °F 20% 30.22 in 10.0 mi Calm Calm - N/A   Clear
5:13 PM 60.8 °F - 21.2 °F 22% 30.21 in 10.0 mi Calm Calm - N/A   Clear
5:33 PM 60.8 °F - 19.4 °F 20% 30.21 in 10.0 mi Calm Calm - N/A   Clear
5:53 PM 60.8 °F - 19.4 °F 20% 30.20 in 10.0 mi Calm Calm - N/A   Clear
6:13 PM 60.8 °F - 21.2 °F 22% 30.20 in 10.0 mi Calm Calm - N/A   Clear
6:33 PM 60.8 °F - 19.4 °F 20% 30.20 in 10.0 mi Calm Calm - N/A   Clear
6:53 PM 60.8 °F - 19.4 °F 20% 30.20 in 10.0 mi Calm Calm - N/A   Clear
7:14 PM 59.0 °F - 21.2 °F 23% 30.20 in 10.0 mi Calm Calm - N/A   Clear
7:33 PM 57.2 °F - 21.2 °F 25% 30.20 in 10.0 mi Calm Calm - N/A   Clear
7:53 PM 55.4 °F - 21.2 °F 26% 30.20 in 10.0 mi Calm Calm - N/A   Clear
8:14 PM 53.6 °F - 21.2 °F 28% 30.20 in 10.0 mi SE 3.5 mph - N/A   Clear
8:33 PM 53.6 °F - 21.2 °F 28% 30.20 in 10.0 mi Calm Calm - N/A   Clear
8:53 PM 53.6 °F - 21.2 °F 28% 30.20 in 10.0 mi SE 4.6 mph - N/A   Clear
9:13 PM 51.8 °F - 21.2 °F 30% 30.19 in 10.0 mi SE 4.6 mph - N/A   Clear
9:33 PM 48.2 °F - 21.2 °F 34% 30.19 in 10.0 mi SE 5.8 mph - N/A   Clear
9:53 PM 46.4 °F 45.2 °F 23.0 °F 40% 30.19 in 10.0 mi SE 3.5 mph - N/A   Clear
10:13 PM 44.6 °F 41.4 °F 23.0 °F 43% 30.18 in 10.0 mi ESE 5.8 mph - N/A   Clear
10:33 PM 44.6 °F 41.4 °F 24.8 °F 46% 30.18 in 10.0 mi SE 5.8 mph - N/A   Clear
10:53 PM 48.2 °F - 23.0 °F 37% 30.17 in 10.0 mi SSE 4.6 mph - N/A   Clear
11:13 PM 46.4 °F 44.3 °F 23.0 °F 40% 30.17 in 10.0 mi SSE 4.6 mph - N/A   Clear
11:34 PM 46.4 °F 44.3 °F 23.0 °F 40% 30.16 in 10.0 mi SSE 4.6 mph - N/A   Clear
11:53 PM 48.2 °F - 21.2 °F 34% 30.16 in 10.0 mi South 5.8 mph - N/A   Clear